Flag for U.S.A. Weather past 2 weeks in Davenport, Iowa, U.S.A.

Now
76 °F

Sunny.


Feels Like: 78 °F
Forecast: 63 / 80 °F
Wind: 9 mph from North

Location: Davenport Municipal Airport

Current Time: Aug 3, 2015 at 11:20:07 AM

Latest Report: Aug 3, 2015 at 10:52 AM


Visibility: 10 mi

Pressure: 29.91 "Hg

Humidity: 47%

Dew point: 54 °F

Location of DavenportLocation

Historic Weather in Davenport — Graph

°F

Davenport temperature yesterday

Maximum temperature yesterday: 89 °F (at 4:52 PM)
Minimum temperature yesterday: 69 °F (at 5:52 AM)
Average temperature yesterday: 79 °F

Past Weeks' High & Low Weather Summary

 TemperatureHumidityPressure
High90 °F (Jul 25, 3:52 PM)97% (Jul 20, 2:52 AM)30.11 "Hg (Jul 20, 2:52 AM)
Low58 °F (Jul 22, 2:52 AM)42% (Jul 21, 1:52 PM)29.69 "Hg (Aug 2, 6:52 PM)
Average74 °F77%29.95 "Hg
* Reported Jul 19 9:52 AM — Aug 3 9:52 AM, Davenport, Weather by CustomWeather, © 2015

Note: Actual official high and low records may vary slightly from our data, if they occured in-between our weather recording intervals... More about our weather records

Advertising

Davenport weather history for previous 24 hours

 ConditionsComfort  
Time TempWeatherWind HumidityBarometerVisibility
9:52 AM
Mon, Aug 3
75 °FSunny.7 mph54%29.90 "Hg10 mi
8:52 AM72 °FSunny.10 mph61%29.89 "Hg10 mi
7:52 AM67 °FSunny.8 mph81%29.87 "Hg10 mi
6:52 AM63 °FClear.5 mph93%29.86 "Hg10 mi
5:52 AM63 °FPassing clouds.5 mph93%29.84 "Hg10 mi
4:52 AM63 °FClear.6 mph93%29.83 "Hg10 mi
3:52 AM66 °FClear.6 mph87%29.81 "Hg10 mi
2:52 AM67 °FClear.6 mph90%29.79 "Hg10 mi
1:52 AM69 °FClear.7 mph84%29.78 "Hg10 mi
12:52 AM71 °FPassing clouds.10 mph73%29.78 "Hg10 mi
11:52 PM
Sun, Aug 2
74 °FPassing clouds.7 mph67%29.76 "Hg10 mi
10:52 PM77 °FClear.9 mph66%29.74 "Hg10 mi
9:52 PM80 °FClear.13 mph81%29.73 "Hg10 mi
8:52 PM82 °FThundershowers. Passing clouds.10 mph77%29.70 "Hg10 mi
7:52 PM84 °FPassing clouds.9 mph72%29.71 "Hg10 mi
6:52 PM86 °FSunny.12 mph67%29.69 "Hg10 mi
5:52 PM88 °FSunny.14 mph61%29.70 "Hg10 mi
4:52 PM89 °FSunny.15 mph59%29.71 "Hg10 mi
3:52 PM88 °FSunny.17 mph61%29.72 "Hg10 mi
2:52 PM88 °FSunny.16 mph59%29.74 "Hg10 mi
1:52 PM88 °FSunny.15 mph61%29.76 "Hg10 mi
12:52 PM85 °FSunny.12 mph63%29.79 "Hg10 mi
11:52 AM82 °FPassing clouds.9 mph63%29.80 "Hg10 mi
Weather by CustomWeather, © 2015

See weather overviewHow to use our weather pages